Montrose, CO

2:00 AM MDT on June 25, 2017 (GMT -0600)
Montrose Regional

Weather History for KMTJ - October, 2012

Change the Weather History Date:

Monday, October 15, 2012

  Actual Average Record
Temperature  
Mean Temperature 53 °F 50 °F  
Max Temperature 70 °F 65 °F 81 °F (2011)
Min Temperature 36 °F 36 °F 28 °F (1997)
Degree Days  
Heating Degree Days 12 15  
Month to date heating degree days 144 177  
Since 1 July heating degree days 221 304  
Cooling Degree Days 0 0  
Month to date cooling degree days 0 0  
Year to date cooling degree days 906 643  
Growing Degree Days 3 (Base 50)    
Moisture  
Dew Point 36 °F    
Average Humidity 56    
Maximum Humidity 85    
Minimum Humidity 26    
Precipitation  
Precipitation 0.00 in 0.04 in 0.01 in (2013)
Month to date precipitation 0.46 0.74  
Year to date precipitation 5.33 9.39  
Sea Level Pressure  
Sea Level Pressure 30.11 in    
Wind  
Wind Speed 6 mph (SE)    
Max Wind Speed 12 mph    
Max Gust Speed 35 mph    
Visibility 10 miles    
Events      
T = Trace of Precipitation, MM = Missing Value Source: NWS Daily Summary

Daily Weather History Graph

Daily Weather History Graph

Search for Another Location

Airport or City:

Trip Planner

Search our weather history database for the weather conditions in past years. The results will help you decide how hot, cold, wet, or windy it might be!

Date:

Astronomy

Oct. 15, 2012 Rise Set
Actual Time 7:21 AM MDT 6:32 PM MDT
Civil Twilight 6:54 AM MDT 6:59 PM MDT
Nautical Twilight 6:23 AM MDT 7:30 PM MDT
Astronomical Twilight 5:52 AM MDT 8:00 PM MDT
Moon 7:34 AM MDT (10/15) 6:35 PM MDT (10/15)
Length of Visible Light 12h 04m
Length of Day
11h 11m
New Moon, 0% of the Moon is Illuminated
Oct 15
New Moon
Oct 21
First Quarter
Oct 29
Full
Nov 6
Last Quarter
Nov 13
New

Hourly Weather History & Observations

Time (MDT) Temp. Windchill Dew Point Humidity Pressure Visibility Wind Dir Wind Speed Gust Speed Precip Events Conditions
12:53 AM 44.1 °F 38.6 °F 35.1 °F 71% 30.22 in 10.0 mi SE 10.4 mph - N/A   Clear
1:53 AM 44.1 °F 38.1 °F 35.1 °F 71% 30.20 in 10.0 mi SE 11.5 mph - N/A   Clear
2:53 AM 43.0 °F 37.2 °F 34.0 °F 71% 30.19 in 10.0 mi SSE 10.4 mph - N/A   Clear
3:53 AM 42.1 °F 37.7 °F 34.0 °F 73% 30.17 in 10.0 mi ESE 6.9 mph - N/A   Clear
4:53 AM 37.0 °F 32.4 °F 33.1 °F 86% 30.19 in 10.0 mi SE 5.8 mph - N/A   Clear
5:53 AM 37.0 °F 31.6 °F 33.1 °F 86% 30.19 in 10.0 mi SSE 6.9 mph - N/A   Clear
6:53 AM 37.0 °F 31.0 °F 32.0 °F 82% 30.19 in 10.0 mi South 8.1 mph - N/A   Clear
7:53 AM 37.9 °F 33.5 °F 33.1 °F 83% 30.22 in 10.0 mi SE 5.8 mph - N/A   Clear
8:53 AM 44.1 °F 40.8 °F 33.1 °F 65% 30.22 in 10.0 mi SSE 5.8 mph - N/A   Clear
9:53 AM 48.9 °F - 34.0 °F 56% 30.21 in 10.0 mi Calm Calm - N/A   Clear
10:53 AM 55.0 °F - 34.0 °F 45% 30.18 in 10.0 mi Calm Calm - N/A   Clear
11:53 AM 57.9 °F - 37.9 °F 47% 30.14 in 10.0 mi NNW 5.8 mph - N/A   Clear
12:53 PM 61.0 °F - 37.9 °F 42% 30.10 in 10.0 mi WNW 4.6 mph - N/A   Clear
1:53 PM 64.9 °F - 37.0 °F 36% 30.05 in 10.0 mi NNW 3.5 mph - N/A   Clear
2:53 PM 68.0 °F - 37.0 °F 32% 30.02 in 10.0 mi NNW 5.8 mph - N/A   Clear
3:53 PM 69.1 °F - 34.0 °F 27% 30.00 in 10.0 mi NNW 4.6 mph - N/A   Clear
4:53 PM 69.1 °F - 36.0 °F 30% 30.00 in 10.0 mi NNW 6.9 mph - N/A   Clear
5:53 PM 66.0 °F - 37.0 °F 34% 30.00 in 10.0 mi NW 4.6 mph - N/A   Clear
6:53 PM 60.1 °F - 39.9 °F 47% 30.01 in 10.0 mi NNE 3.5 mph - N/A   Clear
7:53 PM 54.0 °F - 42.1 °F 64% 30.04 in 10.0 mi SSE 3.5 mph - N/A   Clear
8:53 PM 50.0 °F - 41.0 °F 71% 30.04 in 10.0 mi SE 5.8 mph - N/A   Clear
9:53 PM 48.0 °F - 39.0 °F 71% 30.04 in 10.0 mi SE 5.8 mph - N/A   Clear
10:53 PM 45.0 °F 40.1 °F 37.9 °F 76% 30.02 in 10.0 mi SE 9.2 mph - N/A   Clear
11:53 PM 44.1 °F 39.5 °F 35.1 °F 71% 30.00 in 10.0 mi SSE 8.1 mph - N/A   Clear